[[{"header":{"parameterUnit":"m.s-1","parameterCategory":1,"la1":30.2991,"la2":30.254,"lo1":-89.0895,"lo2":-89.0444,"dy":0.0017,"dx":0.0017,"nx":28,"ny":28,"refTime":"2025-03-15T09:00:00:Z","depth":0,"parameterNumber":2,"parameterNumberName":"U-component_of_WINDS"},"data":[0,0,0,0,0,0,0,0,0,0,0,0,0,0,0,0,0,0,0,0,0,0,0,0,0,0,0,0,0,0,0,0,0,0,0,0,0,0,0,0,0,0,0,0,0,0,0,0,0,0,0,0,0,0,0,0,0,0,0.0736,0.0735,0,0.0654,0.0653,0.0652,0.0577,0.0576,0.0575,0.0574,0.0492,0.0491,0.0489,0,0,0,0,0,0,0,0,0,0,0,0,0,0.0827,0.0826,0.0736,0.0735,0.0734,0.0654,0.0653,0.0652,0.0577,0.0576,0.0575,0.0574,0.0492,0.0491,0.0489,0,0,0,0,0,0,0,0,0,0,0,0,0,0.0771,0.0825,0.0736,0.0687,0.0681,0.0655,0.0653,0.0652,0.0577,0.0576,0.0575,0.0573,0.0493,0.0491,0.0489,0.0505,0,0,0.0483,0.0482,0,0,0,0,0,0,0,0,0.0774,0.0767,0.0695,0.069,0.0684,0.0624,0.0655,0.0603,0.0578,0.0617,0.0574,0.0573,0.0537,0.0531,0.0519,0.0501,0.0497,0.0483,0.0481,0.0481,0.048,0,0,0,0,0,0,0,0.0778,0.0771,0.0703,0.0694,0.0687,0.0669,0.0659,0.0645,0.0586,0.0613,0.0608,0.0599,0.0534,0.0521,0.0517,0.0496,0.0483,0.0481,0.048,0.0479,0.0486,0.0487,0,0,0,0,0,0,0.0789,0.0774,0.0706,0.0701,0.0726,0.0668,0.0658,0.0645,0.0586,0.0575,0.06,0.0596,0.0525,0.0519,0.0514,0.0528,0.0481,0.0479,0.0478,0.0485,0.0486,0.0488,0,0,0,0,0,0,0.0792,0.0784,0.0709,0.0736,0.0725,0.0668,0.0655,0.0644,0.0631,0.0576,0.0565,0.0598,0.0524,0.0516,0.0507,0.0524,0.0478,0.0476,0.0483,0.0485,0.0487,0.0557,0,0,0,0,0,0,0.0795,0.0785,0.079,0.0737,0.0724,0.0704,0.0656,0.0643,0.0628,0.0621,0.0571,0.0561,0.0522,0.0511,0.0505,0.052,0.0474,0.0481,0.0484,0.0486,0.0553,0.0561,0.0568,0,0,0,0,0,0.0798,0.0814,0.0791,0.0783,0.0729,0.0706,0.0698,0.0653,0.063,0.0634,0.0599,0.0563,0.0523,0.051,0.0504,0.0519,0.048,0.0483,0.0486,0.055,0.056,0.0568,0,0,0,0,0,0,0.0871,0.0806,0.078,0.0778,0.0748,0.0693,0.0698,0.0665,0.0641,0.0635,0.058,0.0569,0.0567,0.0541,0.0529,0.053,0.0497,0.0499,0.0547,0.0556,0.0564,0.057,0.0473,0,0,0,0,0,0.0887,0.0873,0.0816,0.0821,0.0807,0.0755,0.0743,0.071,0.0677,0.0664,0.0627,0.0596,0.0577,0.0565,0.0544,0.0549,0.0537,0.0556,0.0564,0.057,0.0573,0.0573,0.0581,0.0498,0.0498,0.0498,0,0,0.0919,0.0882,0.0877,0.0834,0.0807,0.0794,0.0745,0.0733,0.0723,0.0662,0.0651,0.0623,0.0585,0.0583,0.0581,0.0562,0.0593,0.0574,0.058,0.0578,0.0577,0.0585,0.0592,0.05,0.05,0.0499,0,0,0.0972,0.0943,0.0943,0.0916,0.0875,0.0841,0.0841,0.0791,0.077,0.0758,0.0712,0.07,0.0667,0.0641,0.0624,0.0668,0.0634,0.0663,0.0703,0.0704,0.0711,0.0716,0.0732,0.0739,0.0665,0.0665,0.0665,0,0.1018,0.0996,0.0947,0.0938,0.0921,0.0865,0.0865,0.0842,0.0796,0.0786,0.0766,0.0724,0.0694,0.0686,0.0696,0.0684,0.0683,0.0668,0.0714,0.0719,0.0723,0.0738,0.0744,0.0669,0.0669,0.0668,0.0668,0,0.1055,0.104,0.1046,0.1003,0.0986,0.0982,0.0932,0.0921,0.0891,0.0858,0.0847,0.081,0.078,0.0775,0.0745,0.0763,0.0753,0.0724,0.0689,0.0736,0.0749,0.0754,0.0674,0.0673,0.0672,0.0671,0,0,0.1151,0.1081,0.1084,0.1064,0.1015,0.1003,0.0996,0.0967,0.0959,0.0929,0.0922,0.0896,0.0869,0.085,0.0816,0.0818,0.0855,0.0789,0.0787,0.0803,0.0872,0.0894,0.0902,0.0832,0.0833,0.0834,0.0876,0,0.1196,0.118,0.1136,0.1133,0.112,0.1067,0.1061,0.103,0.1,0.0984,0.0951,0.0933,0.0899,0.0887,0.0886,0.0851,0.0868,0.0847,0.0826,0.0826,0.0837,0.0908,0.0931,0.0972,0.088,0.0881,0.0882,0,0.1246,0.122,0.1216,0.1168,0.116,0.1156,0.1126,0.1111,0.1075,0.1053,0.1032,0.0995,0.0985,0.0952,0.0938,0.0925,0.0913,0.0895,0.0895,0.0892,0.0857,0.0907,0.0984,0.0991,0.0889,0.0888,0.0888,0,0.1316,0.128,0.1274,0.1258,0.1202,0.12,0.1176,0.1139,0.1124,0.1098,0.1088,0.1061,0.1047,0.1027,0.0983,0.0963,0.0974,0.0938,0.0956,0.0957,0.096,0.0961,0.1038,0.0953,0.0953,0.0953,0.0953,0,0.1371,0.1371,0.1305,0.1301,0.1299,0.1248,0.1248,0.122,0.1188,0.1177,0.113,0.1121,0.1064,0.1049,0.1015,0.1009,0.1002,0.0984,0.0975,0.0989,0.0991,0.0981,0.0977,0.0955,0.0954,0.0954,0.0954,0,0.1449,0.1405,0.1394,0.1342,0.1329,0.133,0.1285,0.1279,0.1246,0.1234,0.1228,0.1176,0.1156,0.1111,0.1079,0.1056,0.1058,0.1041,0.107,0.1064,0.1085,0.1084,0.1158,0.1165,0.1076,0.1077,0.1078,0,0.1487,0.1486,0.1433,0.1423,0.1401,0.1385,0.137,0.132,0.1306,0.1266,0.1265,0.1241,0.1219,0.1189,0.1149,0.1124,0.1107,0.1135,0.1103,0.1117,0.1108,0.1108,0.1108,0.1142,0.1143,0.1144,0.1145,0,0.1559,0.1537,0.1517,0.1489,0.1472,0.1448,0.1421,0.1416,0.1359,0.1346,0.1325,0.1308,0.1275,0.1252,0.1221,0.1197,0.1162,0.1155,0.1158,0.1172,0.1188,0.118,0.1089,0.1154,0.1153,0.1152,0.1152,0.1151,0.1617,0.1614,0.1577,0.1556,0.1531,0.1507,0.1499,0.1465,0.1446,0.1416,0.1387,0.1369,0.1334,0.1288,0.1267,0.1252,0.1234,0.1238,0.1239,0.1241,0.1247,0.1191,0.1246,0.1246,0.1245,0.1245,0.1245,0,0.1686,0.166,0.1641,0.1606,0.159,0.1558,0.1527,0.1515,0.15,0.147,0.1449,0.1425,0.1402,0.1361,0.1335,0.1331,0.1314,0.1326,0.1325,0.1321,0.1264,0.1264,0.134,0.134,0.134,0.134,0.134,0.134,0.1721,0.1713,0.1687,0.1667,0.164,0.1622,0.1607,0.1585,0.156,0.1536,0.1517,0.149,0.1455,0.1426,0.1404,0.1392,0.1385,0.1402,0.1385,0.1333,0.1324,0.1316,0.1316,0.1401,0.1401,0.1443,0.1443,0.1444]},{"header":{"parameterUnit":"m.s-1","parameterCategory":1,"la1":30.2991,"la2":30.254,"lo1":-89.0895,"lo2":-89.0444,"dy":0.0017,"dx":0.0017,"nx":28,"ny":28,"refTime":"2025-03-15T09:00:00:Z","depth":0,"parameterNumber":3,"parameterNumberName":"V-component_of_WINDS"},"data":[0,0,0,0,0,0,0,0,0,0,0,0,0,0,0,0,0,0,0,0,0,0,0,0,0,0,0,0,0,0,0,0,0,0,0,0,0,0,0,0,0,0,0,0,0,0,0,0,0,0,0,0,0,0,0,0,0,0,9.9195,9.9196,0,9.9305,9.9306,9.9307,9.9273,9.927,9.9268,9.9266,9.9378,9.9383,9.9388,0,0,0,0,0,0,0,0,0,0,0,0,0,9.8957,9.8962,9.9195,9.9196,9.9198,9.9305,9.9306,9.9308,9.9273,9.927,9.9267,9.9265,9.9376,9.9382,9.9388,0,0,0,0,0,0,0,0,0,0,0,0,0,9.9063,9.8963,9.9195,9.9193,9.9194,9.9304,9.9306,9.9308,9.9274,9.927,9.9267,9.9263,9.9374,9.9382,9.9389,9.9507,0,0,9.9413,9.9416,0,0,0,0,0,0,0,0,9.9057,9.9072,9.9192,9.9194,9.9195,9.9272,9.9263,9.9375,9.9275,9.9244,9.9266,9.9262,9.9345,9.9355,9.9383,9.9513,9.9517,9.9414,9.9418,9.9422,9.9424,0,0,0,0,0,0,0,9.905,9.9067,9.9238,9.9194,9.9196,9.9188,9.9199,9.9284,9.9313,9.9246,9.9244,9.9257,9.9345,9.9376,9.9386,9.9519,9.9413,9.942,9.9425,9.9428,9.9755,9.9759,0,0,0,0,0,0,9.9042,9.9061,9.9235,9.9242,9.9116,9.9195,9.9208,9.9251,9.9312,9.9318,9.926,9.9255,9.9365,9.9377,9.939,9.9535,9.9422,9.9429,9.9433,9.9751,9.9756,9.976,0,0,0,0,0,0,9.9037,9.9057,9.9231,9.9151,9.9172,9.9203,9.9251,9.9255,9.9285,9.9322,9.9327,9.9286,9.9362,9.9379,9.9479,9.9538,9.9432,9.9439,9.9746,9.9752,9.9758,9.9823,0,0,0,0,0,0,9.903,9.9056,9.91,9.9152,9.9177,9.9318,9.9255,9.9259,9.9299,9.9293,9.9348,9.9354,9.9361,9.9468,9.9487,9.9547,9.9445,9.9741,9.9749,9.9756,9.9816,9.9831,9.9844,0,0,0,0,0,9.9021,9.9113,9.9103,9.9124,9.9233,9.9321,9.9335,9.9341,9.9303,9.9349,9.9374,9.9352,9.9528,9.9479,9.95,9.9562,9.9737,9.9747,9.9755,9.981,9.9828,9.9843,0,0,0,0,0,0,9.9066,9.912,9.9109,9.922,9.9267,9.9315,9.9372,9.936,9.9418,9.941,9.9415,9.9428,9.9532,9.9557,9.9501,9.9682,9.9627,9.9641,9.9662,9.9679,9.9693,9.9685,9.9452,0,0,0,0,0,9.9089,9.9156,9.9199,9.9294,9.9318,9.9342,9.938,9.9381,9.9429,9.9449,9.948,9.9528,9.9595,9.9638,9.9701,9.982,9.9833,9.9874,9.9887,9.9899,9.9911,9.9979,9.9998,9.979,9.979,9.979,0,0,9.9137,9.9175,9.9216,9.9304,9.934,9.941,9.9358,9.9433,9.9486,9.946,9.9558,9.9583,9.9637,9.9748,9.9799,9.9772,9.9971,9.991,9.9919,9.9925,9.999,10.001,10.0027,9.9796,9.9795,9.9794,0,0,9.926,9.9295,9.9378,9.9416,9.9472,9.9488,9.9509,9.956,9.9577,9.9675,9.9658,9.9721,9.9834,9.9874,9.991,10.0053,10.0036,10.0073,10.0145,10.0211,10.0228,10.0242,10.0296,10.0314,10.0085,10.0085,10.0085,0,9.9312,9.9417,9.9423,9.9501,9.9542,9.9522,9.9608,9.9645,9.9719,9.9747,9.9717,9.9862,9.9896,10.0018,10.0054,10.0082,10.0107,10.0067,10.0225,10.024,10.0253,10.0304,10.0324,10.0089,10.0089,10.0088,10.0088,0,9.948,9.9553,9.9614,9.9688,9.9735,9.9816,9.9836,9.9883,9.9881,9.99,10.0002,10.0044,10.0117,10.0146,10.0143,10.0269,10.0251,10.0223,10.0168,10.0277,10.0326,10.0345,10.0095,10.0094,10.0093,10.0092,0,0,9.9632,9.971,9.9733,9.9767,9.983,9.9887,9.9969,10.0041,10.0082,10.0135,10.0205,10.0303,10.0279,10.0319,10.0322,10.038,10.0495,10.0345,10.0347,10.0373,10.0638,10.066,10.0682,10.0484,10.0488,10.0491,10.0634,0,9.9762,9.9907,9.9916,10.0047,10.0117,10.0102,10.0174,10.022,10.0242,10.0304,10.0328,10.0399,10.036,10.0384,10.0441,10.0468,10.0548,10.0458,10.0551,10.0554,10.0539,10.0707,10.0729,10.0863,10.0653,10.0656,10.0658,0,9.9933,9.9992,10.0131,10.0187,10.0216,10.028,10.0349,10.0409,10.0463,10.0474,10.0521,10.0517,10.0603,10.0546,10.0666,10.0605,10.0644,10.0664,10.0669,10.0678,10.0613,10.0723,10.0905,10.0926,10.0688,10.0685,10.0683,0,10.0033,10.0147,10.0246,10.0276,10.0342,10.0389,10.0419,10.0469,10.0513,10.0573,10.0602,10.0672,10.071,10.0764,10.078,10.0736,10.0901,10.0844,10.0915,10.0915,10.095,10.0948,10.1143,10.0973,10.0973,10.0972,10.0972,0,10.0178,10.0263,10.0292,10.0353,10.045,10.0461,10.0556,10.0584,10.0629,10.0696,10.0687,10.075,10.0766,10.0833,10.0846,10.0945,10.0962,10.0975,10.0978,10.0977,10.0975,10.1003,10.0994,10.0978,10.0977,10.0976,10.0975,0,10.0305,10.0328,10.0435,10.0491,10.0507,10.0576,10.0624,10.0683,10.0704,10.079,10.081,10.0844,10.0922,10.0943,10.1037,10.1045,10.1163,10.1156,10.1145,10.1146,10.1216,10.121,10.1437,10.1468,10.1276,10.1278,10.1279,0,10.0397,10.0463,10.0527,10.0571,10.0604,10.0675,10.0721,10.0735,10.0783,10.0851,10.0903,10.0981,10.1044,10.117,10.1204,10.1276,10.1272,10.1346,10.1282,10.1281,10.1276,10.1272,10.128,10.1359,10.1361,10.1362,10.1364,0,10.0557,10.0566,10.0632,10.0704,10.0759,10.0815,10.0869,10.0906,10.0928,10.0983,10.1064,10.1113,10.121,10.1288,10.1362,10.1394,10.1384,10.1384,10.1404,10.1404,10.1396,10.1404,10.118,10.1378,10.1377,10.1376,10.1375,10.1374,10.0671,10.0731,10.0786,10.086,10.0903,10.0955,10.1015,10.1044,10.1112,10.1192,10.1197,10.1285,10.1341,10.1439,10.1476,10.1546,10.1524,10.1553,10.1561,10.1568,10.1576,10.1384,10.156,10.1559,10.1559,10.1559,10.1558,0,10.0833,10.0869,10.0937,10.1015,10.1074,10.106,10.112,10.1171,10.1249,10.1302,10.1365,10.146,10.1536,10.1577,10.1654,10.1703,10.17,10.1722,10.1719,10.1728,10.159,10.1565,10.1723,10.1723,10.1723,10.1723,10.1723,10.1723,10.0924,10.1025,10.1041,10.1164,10.1199,10.1286,10.1322,10.1371,10.1413,10.152,10.1584,10.161,10.1659,10.174,10.181,10.182,10.185,10.1875,10.1883,10.1754,10.1737,10.1721,10.1698,10.1881,10.1882,10.2015,10.2017,10.2018]}]]